{"data":{"norad_id":63941,"epoch":"2026-09-20T18:33:39.621600Z","epoch_age_seconds":123443,"freshness":"FRESH","line1":"1 63941U 25098R   26263.77337525  .00010737  00000+0  37745-3 0  9991","line2":"2 63941  69.9997 140.2022 0003234 263.4105  96.6702 15.29576607 75839","mean_motion":15.29576607,"eccentricity":0.0003234,"inclination_deg":69.9997,"raan_deg":140.2022,"arg_perigee_deg":263.4105,"mean_anomaly_deg":96.6702,"bstar":0.00037745,"rev_number":7583,"period_min":94.14369920473,"perigee_km":474.86006447216,"apogee_km":479.29401691368,"semimajor_km":6855.2140406929,"source":"CELESTRAK","updated_at":"2026-09-21T09:00:35.151962Z"}}